| time (UTC) | temp C | wind direction | speed KPH | gust KPH | rain 1hr cm | rain 24hr cm | rain mn cm | humidity % | barometer mb |
| 20260506224538 | 8 | 0 | 0.0 | 0.0 | 0.00 | 0.81 | 0.00 | 93 | 1012.9 |
| 20260506223036 | 8 | 0 | 0.0 | 0.0 | 0.00 | 0.81 | 0.00 | 93 | 1012.7 |
| 20260506221535 | 8 | 0 | 0.0 | 1.6 | 0.00 | 0.81 | 0.00 | 93 | 1012.8 |
| 20260506220039 | 8 | 0 | 0.0 | 0.0 | 0.00 | 0.81 | 0.00 | 93 | 1012.7 |
| 20260506214539 | 8 | 0 | 0.0 | 0.0 | 0.00 | 0.81 | 0.81 | 92 | 1012.9 |
| 20260506213038 | 9 | 0 | 0.0 | 3.2 | 0.00 | 0.81 | 0.81 | 92 | 1012.8 |
| 20260506211538 | 9 | 0 | 0.0 | 1.6 | 0.00 | 0.81 | 0.81 | 93 | 1012.7 |
| 20260506210035 | 8 | 213 | 0.0 | 3.2 | 0.00 | 0.81 | 0.81 | 93 | 1012.6 |
| 20260506204536 | 8 | 0 | 0.0 | 0.0 | 0.00 | 0.91 | 0.81 | 93 | 1012.5 |
| 20260506203057 | 8 | 0 | 0.0 | 0.0 | 0.00 | 0.91 | 0.81 | 93 | 1012.5 |
| 20260506201534 | 8 | 0 | 0.0 | 0.0 | 0.00 | 0.91 | 0.81 | 92 | 1012.3 |
| 20260506200046 | 8 | 0 | 0.0 | 1.6 | 0.00 | 0.91 | 0.81 | 92 | 1012.1 |
| 20260506194536 | 8 | 148 | 0.0 | 1.6 | 0.00 | 1.09 | 0.81 | 92 | 1012.0 |
| 20260506193035 | 8 | 173 | 0.0 | 1.6 | 0.00 | 1.09 | 0.81 | 91 | 1012.1 |
| 20260506191539 | 8 | 0 | 0.0 | 1.6 | 0.00 | 1.09 | 0.81 | 91 | 1011.8 |
| 20260506190046 | 9 | 0 | 0.0 | 1.6 | 0.00 | 1.09 | 0.81 | 90 | 1011.5 |
| 20260506184548 | 9 | 0 | 0.0 | 0.0 | 0.00 | 1.09 | 0.81 | 89 | 1011.6 |
| 20260506183035 | 10 | 0 | 0.0 | 0.0 | 0.00 | 1.09 | 0.81 | 88 | 1011.4 |
| 20260506181538 | 10 | 0 | 0.0 | 0.0 | 0.00 | 1.09 | 0.81 | 87 | 1011.2 |
| 20260506180038 | 11 | 0 | 0.0 | 0.0 | 0.00 | 1.09 | 0.81 | 84 | 1011.2 |
| 20260506174538 | 12 | 0 | 0.0 | 6.4 | 0.00 | 1.14 | 0.81 | 79 | 1011.0 |
| 20260506173047 | 12 | 14 | 3.2 | 8.0 | 0.00 | 1.14 | 0.81 | 77 | 1010.8 |
| 20260506171537 | 12 | 18 | 4.8 | 12.9 | 0.00 | 1.14 | 0.81 | 78 | 1010.8 |
| 20260506170035 | 12 | 358 | 6.4 | 12.9 | 0.00 | 1.14 | 0.81 | 79 | 1010.6 |
| 20260506164545 | 12 | 23 | 6.4 | 12.9 | 0.00 | 1.14 | 0.81 | 77 | 1010.7 |
| 20260506163055 | 12 | 101 | 0.0 | 3.2 | 0.00 | 1.14 | 0.81 | 82 | 1010.8 |
| 20260506161537 | 12 | 0 | 0.0 | 4.8 | 0.00 | 1.14 | 0.81 | 80 | 1010.7 |
| 20260506160036 | 13 | 0 | 1.6 | 6.4 | 0.00 | 1.12 | 0.79 | 81 | 1010.8 |
| 20260506154541 | 12 | 41 | 3.2 | 19.3 | 0.00 | 1.12 | 0.79 | 75 | 1010.7 |
| 20260506153037 | 12 | 10 | 8.0 | 16.1 | 0.00 | 1.12 | 0.79 | 77 | 1010.9 |
| 20260506151540 | 12 | 319 | 9.7 | 24.1 | 0.00 | 1.12 | 0.79 | 77 | 1010.7 |
| 20260506150035 | 12 | 347 | 12.9 | 27.4 | 0.00 | 1.12 | 0.79 | 77 | 1010.7 |
| 20260506144534 | 12 | 323 | 16.1 | 29.0 | 0.00 | 1.14 | 0.79 | 77 | 1010.7 |
| 20260506143039 | 12 | 342 | 9.7 | 16.1 | 0.00 | 1.14 | 0.79 | 80 | 1010.7 |
| 20260506141539 | 12 | 16 | 9.7 | 24.1 | 0.00 | 1.14 | 0.79 | 79 | 1010.9 |
| 20260506140038 | 12 | 25 | 11.3 | 22.5 | 0.00 | 1.14 | 0.79 | 77 | 1010.8 |
| 20260506134535 | 13 | 2 | 14.5 | 27.4 | 0.00 | 1.45 | 0.79 | 76 | 1010.7 |
| 20260506133036 | 12 | 349 | 14.5 | 27.4 | 0.00 | 1.45 | 0.79 | 82 | 1010.5 |
| 20260506131537 | 11 | 28 | 14.5 | 29.0 | 0.00 | 1.45 | 0.79 | 82 | 1010.8 |
| 20260506130040 | 11 | 353 | 17.7 | 29.0 | 0.00 | 1.45 | 0.79 | 84 | 1010.3 |
| 20260506124540 | 11 | 23 | 14.5 | 24.1 | 0.00 | 1.45 | 0.79 | 85 | 1010.4 |
| 20260506123037 | 11 | 338 | 12.9 | 24.1 | 0.00 | 1.45 | 0.79 | 84 | 1010.3 |
| 20260506121543 | 11 | 356 | 11.3 | 20.9 | 0.00 | 1.45 | 0.79 | 82 | 1010.1 |
| 20260506120040 | 11 | 354 | 12.9 | 24.1 | 0.00 | 1.45 | 0.79 | 82 | 1010.1 |
| 20260506114540 | 11 | 15 | 16.1 | 22.5 | 0.00 | 1.47 | 0.79 | 82 | 1010.0 |
| 20260506113038 | 10 | 341 | 14.5 | 22.5 | 0.00 | 1.47 | 0.79 | 82 | 1009.9 |
| 20260506111537 | 10 | 7 | 11.3 | 25.7 | 0.00 | 1.47 | 0.79 | 84 | 1009.8 |
| 20260506110040 | 10 | 25 | 16.1 | 27.4 | 0.00 | 1.47 | 0.79 | 84 | 1009.9 |
| 20260506104536 | 11 | 27 | 12.9 | 43.5 | 0.00 | 1.47 | 0.79 | 83 | 1009.7 |
| 20260506103037 | 11 | 64 | 14.5 | 33.8 | 0.03 | 1.47 | 0.79 | 84 | 1009.7 |
| 20260506101537 | 12 | 0 | 0.0 | 0.0 | 0.10 | 1.47 | 0.79 | 94 | 1009.6 |
| 20260506100038 | 11 | 165 | 0.0 | 1.6 | 0.18 | 1.47 | 0.79 | 96 | 1009.7 |
| 20260506094535 | 10 | 187 | 0.0 | 3.2 | 0.25 | 1.50 | 0.79 | 95 | 1009.6 |
| 20260506093033 | 10 | 171 | 0.0 | 0.0 | 0.28 | 1.47 | 0.74 | 94 | 1009.5 |
| 20260506091532 | 10 | 0 | 0.0 | 1.6 | 0.36 | 1.40 | 0.66 | 94 | 1009.5 |
| 20260506090033 | 10 | 174 | 0.0 | 1.6 | 0.46 | 1.32 | 0.61 | 94 | 1009.3 |
| 20260506084544 | 10 | 0 | 0.0 | 0.0 | 0.46 | 1.27 | 0.53 | 94 | 1009.2 |
| 20260506083038 | 10 | 0 | 0.0 | 0.0 | 0.43 | 1.22 | 0.46 | 94 | 1008.9 |
| 20260506081541 | 10 | 0 | 0.0 | 0.0 | 0.25 | 1.02 | 0.28 | 94 | 1008.8 |
| 20260506073034 | 10 | 0 | 0.0 | 0.0 | 0.00 | 0.76 | 0.03 | 94 | 1007.9 |
| 20260506071539 | 10 | 0 | 0.0 | 0.0 | 0.00 | 0.76 | 0.03 | 95 | 1007.8 |
| 20260506061535 | 9 | 0 | 0.0 | 0.0 | 0.00 | 0.74 | 0.00 | 95 | 1007.6 |
| 20260506044538 | 8 | 0 | 0.0 | 0.0 | 0.00 | 0.89 | 0.00 | 95 | 1007.5 |
| 20260506043035 | 7 | 0 | 0.0 | 1.6 | 0.00 | 0.89 | 0.00 | 94 | 1007.5 |
| 20260506041550 | 8 | 0 | 0.0 | 1.6 | 0.00 | 0.89 | 0.00 | 95 | 1007.5 |
| 20260506040040 | 8 | 0 | 0.0 | 0.0 | 0.00 | 0.89 | 0.00 | 94 | 1007.6 |
| 20260506034547 | 8 | 0 | 0.0 | 0.0 | 0.00 | 0.94 | 0.00 | 94 | 1007.7 |
| 20260506033036 | 8 | 150 | 0.0 | 4.8 | 0.00 | 0.94 | 0.00 | 94 | 1007.7 |
| 20260506031535 | 8 | 0 | 0.0 | 0.0 | 0.00 | 0.94 | 0.00 | 94 | 1007.5 |
| 20260506030038 | 8 | 0 | 0.0 | 1.6 | 0.00 | 0.94 | 0.00 | 94 | 1007.7 |
| 20260506024533 | 8 | 0 | 0.0 | 1.6 | 0.00 | 0.94 | 0.00 | 93 | 1008.0 |
| 20260506023034 | 8 | 169 | 0.0 | 3.2 | 0.00 | 0.94 | 0.00 | 94 | 1008.1 |
| 20260506021533 | 8 | 0 | 0.0 | 4.8 | 0.00 | 0.94 | 0.00 | 94 | 1008.2 |
| 20260506020034 | 8 | 0 | 0.0 | 0.0 | 0.00 | 0.94 | 0.00 | 94 | 1008.5 |
| 20260506014534 | 8 | 0 | 0.0 | 3.2 | 0.00 | 0.94 | 0.00 | 94 | 1008.8 |
| 20260506013048 | 8 | 0 | 0.0 | 0.0 | 0.00 | 0.94 | 0.00 | 93 | 1008.9 |
| 20260506011542 | 8 | 0 | 0.0 | 0.0 | 0.00 | 0.94 | 0.00 | 93 | 1009.0 |
| 20260506010037 | 9 | 0 | 0.0 | 0.0 | 0.00 | 0.94 | 0.00 | 93 | 1009.3 |
| 20260506004534 | 9 | 0 | 0.0 | 0.0 | 0.00 | 0.97 | 0.00 | 93 | 1009.4 |
| 20260506003038 | 9 | 0 | 0.0 | 0.0 | 0.00 | 0.97 | 0.00 | 92 | 1009.6 |
| 20260506001533 | 10 | 0 | 0.0 | 0.0 | 0.00 | 0.97 | 0.00 | 93 | 1009.9 |
| 20260506000033 | 10 | 0 | 0.0 | 0.0 | 0.00 | 0.97 | 0.00 | 92 | 1010.1 |
| 20260505234535 | 10 | 0 | 0.0 | 0.0 | 0.00 | 0.97 | 0.00 | 92 | 1010.8 |
| 20260505233038 | 10 | 0 | 0.0 | 0.0 | 0.00 | 0.97 | 0.00 | 92 | 1010.8 |
| 20260505231537 | 10 | 0 | 0.0 | 0.0 | 0.00 | 0.97 | 0.00 | 91 | 1011.0 |
| 20260505230056 | 10 | 0 | 0.0 | 0.0 | 0.00 | 0.97 | 0.00 | 90 | 1010.7 |